sat.trackr.live / text

‹ back to catalog

UNKNOWN

NORAD 87237

UNKNOWN UNKNOWN UNKNOWN

§ Identity

Operator
Country
Launch date
Launch site
Launch vehicle
Mass (kg)
RCS (m²)

External: N2YO · Heavens-Above

§ Orbital elements

Epoch: 2026-09-13T03:04:02.127360Z

Period
103.45 min
Inclination
99.2231°
Eccentricity
0.0102147
Mean motion
13.91968616 rev/d
Perigee alt
847.2 km
Apogee alt
996.3 km
Semi-major
7,299.9 km
B*
1.3711e-4
RAAN
315.5489°
Arg perigee
261.5707°
Mean anomaly
126.4395°
Rev number
64,993

§ Raw data

UNKNOWN1 87237U          26256.12780240  .00000137  00000+0  13711-3 0  99982 87237  99.2231 315.5489 0102147 261.5707 126.4395 13.91968616649934

JSON: /api/v1/satellites/87237 · /tle

For live sub-satellite position, see the globe view (requires WebGL).

§ Visibility from observer

Set your observer location to see the next 7 days of passes ≥ 10°. The values pass through the URL so the page stays shareable.

No JS? Fill the form by hand. The geolocation button needs JavaScript.